Wooster, OH

6:24 AM EDT on April 23, 2018 (GMT -0400)
Wayne County

Weather History for KBJJ - May, 2013

Change the Weather History Date:

Sunday, May 26, 2013

  Actual Average Record
Temperature  
Mean Temperature 50 °F -  
Max Temperature 66 °F 68 °F 86 °F (2012)
Min Temperature 35 °F 48 °F 35 °F (2013)
Degree Days  
Heating Degree Days 14    
Moisture  
Dew Point 32 °F    
Average Humidity 52    
Maximum Humidity 86    
Minimum Humidity 27    
Precipitation  
Precipitation 0.00 in - - ()
Sea Level Pressure  
Sea Level Pressure 30.30 in    
Wind  
Wind Speed 5 mph (North)    
Max Wind Speed 12 mph    
Max Gust Speed 17 mph    
Visibility 10 miles    
Events      
Averages and records for this station are not official NWS values.
T = Trace of Precipitation, MM = Missing Value Source: NWS Daily Summary

Daily Weather History Graph

Daily Weather History Graph

Search for Another Location

Airport or City:

Astronomy

May. 26, 2013 Rise Set
Actual Time 6:01 AM EDT 8:48 PM EDT
Civil Twilight 5:28 AM EDT 9:20 PM EDT
Nautical Twilight 4:48 AM EDT 10:01 PM EDT
Astronomical Twilight 4:01 AM EDT 10:48 PM EDT
Moon 10:34 PM EDT (5/26) 7:29 AM EDT (5/26)
Length of Visible Light 15h 51m
Length of Day
14h 47m
Waning Gibbous, 97% of the Moon is Illuminated
May 26
Waning Gibbous
May 31
Last Quarter
Jun 8
New
Jun 16
First Quarter
Jun 23
Full

Hourly Weather History & Observations

Time (EDT) Temp. Windchill Dew Point Humidity Pressure Visibility Wind Dir Wind Speed Gust Speed Precip Events Conditions
12:56 AM 41.0 °F - 34.0 °F 76% 30.31 in 10.0 mi Calm Calm - N/A   Clear
1:56 AM 39.0 °F - 33.1 °F 79% 30.30 in 10.0 mi Calm Calm - N/A   Clear
2:56 AM 36.0 °F - 32.0 °F 86% 30.29 in 10.0 mi Calm Calm - N/A   Clear
3:56 AM 37.9 °F 34.4 °F 30.9 °F 76% 30.29 in 10.0 mi NNW 4.6 mph - N/A   Clear
4:56 AM 35.1 °F 29.3 °F 28.9 °F 78% 30.30 in 10.0 mi North 6.9 mph - 0.00 in   Clear
5:56 AM 36.0 °F 30.3 °F 30.9 °F 82% 30.31 in 10.0 mi North 6.9 mph - N/A   Clear
6:56 AM 37.0 °F 31.6 °F 33.1 °F 86% 30.34 in 10.0 mi North 6.9 mph - N/A   Clear
7:56 AM 45.0 °F 41.2 °F 39.0 °F 80% 30.34 in 10.0 mi NNW 6.9 mph - N/A   Clear
8:56 AM 51.1 °F - 37.0 °F 59% 30.34 in 10.0 mi Variable 5.8 mph - N/A   Clear
9:56 AM 55.0 °F - 34.0 °F 45% 30.35 in 10.0 mi NE 9.2 mph - N/A   Clear
10:56 AM 57.9 °F - 32.0 °F 37% 30.34 in 10.0 mi NNE 11.5 mph - N/A   Clear
11:56 AM 60.1 °F - 30.0 °F 32% 30.34 in 10.0 mi NNE 9.2 mph 17.3 mph N/A   Clear
12:56 PM 62.1 °F - 30.9 °F 31% 30.33 in 10.0 mi NNE 10.4 mph - N/A   Clear
1:56 PM 63.0 °F - 30.0 °F 29% 30.32 in 10.0 mi North 11.5 mph 17.3 mph N/A   Clear
2:56 PM 64.9 °F - 30.0 °F 27% 30.31 in 10.0 mi North 11.5 mph - N/A   Clear
3:56 PM 66.0 °F - 32.0 °F 28% 30.30 in 10.0 mi North 10.4 mph - N/A   Clear
4:56 PM 64.9 °F - 30.0 °F 27% 30.29 in 10.0 mi North 8.1 mph - N/A   Clear
5:56 PM 64.0 °F - 30.9 °F 29% 30.28 in 10.0 mi North 11.5 mph - N/A   Clear
6:56 PM 62.1 °F - 28.9 °F 29% 30.27 in 10.0 mi North 8.1 mph - N/A   Clear
7:56 PM 60.1 °F - 32.0 °F 35% 30.26 in 10.0 mi North 4.6 mph - N/A   Clear
8:56 PM 55.9 °F - 32.0 °F 40% 30.26 in 10.0 mi North 3.5 mph - N/A   Clear
9:56 PM 52.0 °F - 33.1 °F 49% 30.27 in 10.0 mi NNE 5.8 mph - N/A   Clear
10:56 PM 50.0 °F - 32.0 °F 50% 30.28 in 10.0 mi NNE 6.9 mph - N/A   Clear
11:56 PM 44.1 °F - 33.1 °F 65% 30.28 in 10.0 mi Calm Calm - N/A   Clear